Fort Polk, LA

6:29 PM CDT on March 29, 2017 (GMT -0500)
Fort Polk

Weather History for KBKB - December, 2013

Change the Weather History Date:

Friday, December 13, 2013

  Actual Average (KPOE) Record (KPOE)
Temperature  
Mean Temperature 46 °F -  
Max Temperature 55 °F 58 °F 75 °F (1996)
Min Temperature 37 °F 39 °F 28 °F (2010)
Degree Days  
Heating Degree Days 19    
Moisture  
Dew Point 40 °F    
Average Humidity 73    
Maximum Humidity 94    
Minimum Humidity 52    
Precipitation  
Precipitation 0.43 in - - ()
Sea Level Pressure  
Sea Level Pressure 30.14 in    
Wind  
Wind Speed 2 mph (SE)    
Max Wind Speed 6 mph    
Max Gust Speed -    
Visibility 8 miles    
Events Rain    
Averages and records for this station are not official NWS values.
T = Trace of Precipitation, MM = Missing Value Source: NWS Daily Summary

Daily Weather History Graph

Daily Weather History Graph

Search for Another Location

Airport or City:

Trip Planner

Search our weather history database for the weather conditions in past years. The results will help you decide how hot, cold, wet, or windy it might be!

Date:

Astronomy

Dec. 13, 2013 Rise Set
Actual Time 7:01 AM CST 5:10 PM CST
Civil Twilight 6:34 AM CST 5:37 PM CST
Nautical Twilight 6:04 AM CST 6:07 PM CST
Astronomical Twilight 5:34 AM CST 6:37 PM CST
Moon 2:45 PM CST (12/13) 3:34 AM CST (12/13)
Length of Visible Light 11h 02m
Length of Day
10h 09m
Waxing Gibbous, 88% of the Moon is Illuminated
Dec 13
Waxing Gibbous
Dec 17
Full
Dec 25
Last Quarter
Jan 1
New
Jan 7
First Quarter

Hourly Weather History & Observations

Time (CST) Temp. Windchill Dew Point Humidity Pressure Visibility Wind Dir Wind Speed Gust Speed Precip Events Conditions
12:54 AM 37.0 °F - 28.0 °F 70% 30.43 in 10.0 mi Calm Calm - N/A   Clear
1:54 AM 37.9 °F - 27.0 °F 65% 30.41 in 10.0 mi Calm Calm - N/A   Clear
2:54 AM 37.0 °F - 28.9 °F 73% 30.39 in 10.0 mi Calm Calm - N/A   Clear
3:54 AM 37.9 °F - 28.0 °F 68% 30.36 in 10.0 mi Calm Calm - N/A   Clear
4:54 AM 39.9 °F - 25.0 °F 55% 30.32 in 10.0 mi Calm Calm - N/A   Clear
5:54 AM 39.9 °F 37.8 °F 25.0 °F 55% 30.32 in 10.0 mi Variable 3.5 mph - N/A   Clear
6:54 AM 39.9 °F - 27.0 °F 60% 30.35 in 10.0 mi Calm Calm - N/A   Clear
7:54 AM 39.9 °F - 28.9 °F 65% 30.34 in 10.0 mi Calm Calm - N/A   Clear
8:54 AM 43.0 °F 40.3 °F 28.9 °F 58% 30.31 in 10.0 mi SE 4.6 mph - N/A   Clear
9:54 AM 48.0 °F - 30.9 °F 52% 30.28 in 10.0 mi Variable 5.8 mph - N/A   Clear
10:09 AM 48.2 °F - 32.0 °F 54% 30.19 in 10.0 mi Variable 3.5 mph - N/A   Mostly Cloudy
10:54 AM 50.0 °F - 34.0 °F 54% 30.26 in 10.0 mi Variable 3.5 mph - N/A   Overcast
11:54 AM 52.0 °F - 37.0 °F 57% 30.20 in 7.0 mi Variable 3.5 mph - N/A   Mostly Cloudy
12:54 PM 53.1 °F - 39.9 °F 61% 30.17 in 10.0 mi Calm Calm - N/A   Mostly Cloudy
1:46 PM 53.6 °F - 42.8 °F 67% 30.04 in 8.0 mi Calm Calm - N/A   Mostly Cloudy
1:54 PM 55.0 °F - 42.1 °F 62% 30.12 in 6.0 mi Calm Calm - N/A   Haze
2:54 PM 54.0 °F - 44.1 °F 69% 30.10 in 10.0 mi Calm Calm - N/A   Overcast
3:54 PM 54.0 °F - 44.1 °F 69% 30.08 in 10.0 mi Calm Calm - N/A   Overcast
4:54 PM 53.1 °F - 45.0 °F 74% 30.05 in 10.0 mi ESE 4.6 mph - N/A   Overcast
5:54 PM 53.1 °F - 44.1 °F 71% 30.03 in 10.0 mi Variable 4.6 mph - N/A   Overcast
6:54 PM 53.1 °F - 44.1 °F 71% 30.02 in 10.0 mi ESE 4.6 mph - 0.00 in   Overcast
7:54 PM 52.0 °F - 46.0 °F 80% 29.99 in 6.0 mi Variable 3.5 mph - 0.00 in Rain Light Rain
8:54 PM 53.1 °F - 50.0 °F 89% 29.99 in 4.0 mi Variable 4.6 mph - 0.10 in Rain Rain
9:09 PM 53.6 °F - 50.0 °F 88% 29.89 in 2.5 mi Variable 3.5 mph - 0.05 in Rain Light Rain
9:16 PM 53.6 °F - 50.0 °F 88% 29.89 in 3.0 mi SSE 4.6 mph - 0.08 in Rain Rain
9:49 PM 53.6 °F - 51.8 °F 94% 29.87 in 1.8 mi Variable 3.5 mph - 0.22 in Rain Heavy Rain
9:54 PM 54.0 °F - 52.0 °F 93% 29.96 in 1.8 mi Variable 4.6 mph - 0.23 in Rain Rain
9:58 PM 53.6 °F - 51.8 °F 94% 29.87 in 3.0 mi Variable 4.6 mph - 0.00 in Rain Light Rain
10:12 PM 53.6 °F - 51.8 °F 94% 29.87 in 2.5 mi Variable 3.5 mph - 0.04 in Rain Light Rain
10:30 PM 53.6 °F - 51.8 °F 94% 29.87 in 4.0 mi Variable 3.5 mph - 0.08 in Rain Light Rain
10:54 PM 55.0 °F - 53.1 °F 93% 30.68 in 4.0 mi Variable 4.6 mph - 0.10 in Rain Light Rain
11:54 PM 55.9 °F - 54.0 °F 93% 29.93 in 6.0 mi Calm Calm - 0.00 in Rain Light Rain